Waarnemingen

Advertentie
Mijn weer
Konstanz, Duitsland (10929): temperatuur & dauwpunt: 17.04.2018 19:00:00 - 23.04.2018 19:00:00 (CEST)Konstanz, Duitsland (10929): temperatuur 5cm & temperatuur -5cm: 17.04.2018 19:00:00 - 23.04.2018 19:00:00 (CEST)Konstanz, Duitsland (10929): temperatuur -20cm & temperatuur -100cm: 17.04.2018 19:00:00 - 23.04.2018 19:00:00 (CEST)Konstanz, Duitsland (10929): windsnelheid & windstoten: 17.04.2018 19:00:00 - 23.04.2018 19:00:00 (CEST)Konstanz, Duitsland (10929): windrichting: 17.04.2018 19:00:00 - 23.04.2018 19:00:00 (CEST)Konstanz, Duitsland (10929): luchtdruk: 17.04.2018 19:00:00 - 23.04.2018 19:00:00 (CEST)Konstanz, Duitsland (10929): zicht: 17.04.2018 19:00:00 - 23.04.2018 19:00:00 (CEST)Konstanz, Duitsland (10929): Zonneschijnduur: 17.04.2018 19:00:00 - 23.04.2018 19:00:00 (CEST)Konstanz, Duitsland (10929): neerslag: 17.04.2018 19:00:00 - 23.04.2018 19:00:00 (CEST)
Datum & Tijd tt [°C] td [°C] tt 5cm [°C] tt -5cm [°C] tt -20cm [°C] tt -100cm [°C] ff [km/u] ff [kn] fx [km/u] fx [kn] dd ppp [hPa] vv [km] sd [min] rr [mm]
23.04.2018 19:00:00 18,2 10,1 18,2 22,4 20,7 13,0 15 8 28 15 NW 1016,9 70 0 0,0
23.04.2018 18:00:00 19,8 11,3 18,6 23,9 20,7 13,0 7 4 20 11 NW 1016,1 58 5 0,0
23.04.2018 17:00:00 20,7 10,0 23,5 25,2 20,6 13,0 8 5 27 15 NNW 1016,0 70 16 0,0
23.04.2018 16:00:00 21,3 9,3 23,9 27,1 20,1 13,0 17 9 31 17 N 1015,9 53 58 0,0
23.04.2018 15:00:00 21,1 8,7 25,3 27,1 19,5 12,9 23 12 44 24 NNW 1016,0 34 60 0,0
23.04.2018 14:00:00 24,4 7,3 30,0 26,8 18,8 12,9 15 8 26 14 W 1015,0 42 59 0,0
23.04.2018 13:00:00 24,2 6,6 32,2 25,7 18,1 12,9 9 5 19 10 ZW 1015,4 40 60 0,0
23.04.2018 12:00:00 22,1 6,3 26,9 22,9 17,6 12,9 12 6 22 12 W 1016,1 59 51 0,0
23.04.2018 11:00:00 21,1 7,4 25,3 21,3 17,2 12,9 7 4 12 6 ZW 1016,4 42 58 0,0
23.04.2018 10:00:00 19,6 10,2 23,0 18,6 17,1 12,8 3 2 9 5 Z 1016,5 43 60 0,0
23.04.2018 09:00:00 17,2 10,3 17,2 16,3 17,2 12,8 4 2 7 4 O 1016,8 38 51 0,0
23.04.2018 08:00:00 15,4 10,0 15,7 15,9 17,3 12,8 3 1 12 7 O 1016,8 38 33 0,0
23.04.2018 07:00:00 13,0 9,6 11,6 15,5 17,6 12,8 6 4 8 5 NNO 1017,3 37 0 0,0
23.04.2018 06:00:00 13,4 9,7 11,3 16,0 17,9 12,8 4 2 8 5 O 1017,0 42 0 0,0
23.04.2018 05:00:00 14,2 9,7 13,1 16,3 18,2 12,8 7 4 9 5 NO 1016,9 42 0 0,0
23.04.2018 04:00:00 13,5 9,0 11,4 16,5 18,5 12,7 5 3 8 4 NO 1017,0 48 0 0,0
23.04.2018 03:00:00 15,7 8,0 11,7 17,0 18,8 12,7 4 2 8 4 ZW 1016,4 64 0 0,0
23.04.2018 02:00:00 17,7 7,8 13,0 17,6 19,2 12,7 6 3 10 6 W 1015,9 52 0 0,0
23.04.2018 01:00:00 18,0 7,8 13,8 18,2 19,6 12,7 8 4 12 6 W 1015,7 59 0 0,0
23.04.2018 00:00:00 17,9 8,2 15,6 18,9 20,0 12,7 10 5 12 7 W 1015,3 64 0 0,0
22.04.2018 23:00:00 18,8 7,2 14,2 19,7 20,4 12,7 5 3 11 6 W 1014,7 70 0 0,0
22.04.2018 22:00:00 20,0 7,5 15,2 20,7 20,7 12,7 5 3 8 5 W 1014,1 70 0 0,0
22.04.2018 21:00:00 21,5 7,0 16,6 22,1 21,0 12,7 6 3 8 4 W 1013,4 70 0 0,0
22.04.2018 20:00:00 24,3 6,5 22,0 23,8 21,1 12,6 7 4 18 10 ZW 1012,5 70 55 0,0
22.04.2018 19:00:00 25,8 5,1 25,4 25,6 21,0 12,6 11 6 23 12 WZW 1012,1 70 60 0,0
22.04.2018 18:00:00 26,9 5,6 28,9 27,1 20,7 12,6 13 7 24 13 W 1012,0 59 60 0,0
22.04.2018 17:00:00 27,0 6,2 30,5 27,9 20,2 12,6 11 6 21 12 WZW 1012,3 47 55 0,0
22.04.2018 16:00:00 25,4 10,0 28,0 28,2 19,5 12,6 8 4 18 10 ZO 1013,1 50 58 0,0
22.04.2018 15:00:00 24,5 9,7 29,7 27,7 18,8 12,6 6 4 12 7 O 1014,0 35 60 0,0
22.04.2018 14:00:00 24,8 8,9 31,1 26,7 18,0 12,6 5 3 12 6 ZZO 1014,5 39 60 0,0
22.04.2018 13:00:00 22,4 9,9 27,5 25,0 17,2 12,5 8 4 10 5 ONO 1015,5 31 60 0,0
22.04.2018 12:00:00 21,1 9,2 26,3 22,7 16,6 12,5 5 3 11 6 O 1016,1 41 60 0,0
22.04.2018 11:00:00 19,1 8,3 24,0 20,0 16,2 12,5 5 3 11 6 O 1016,7 31 60 0,0
22.04.2018 10:00:00 17,1 7,9 20,7 17,1 16,1 12,5 5 3 9 5 O 1017,2 34 60 0,0
22.04.2018 09:00:00 15,4 9,1 15,2 14,5 16,3 12,5 5 3 9 5 NNO 1017,6 27 60 0,0
22.04.2018 08:00:00 12,8 9,3 13,4 14,1 16,5 12,4 5 3 8 5 WNW 1018,0 25 60 0,0
22.04.2018 07:00:00 10,8 9,0 8,3 14,1 16,9 12,4 3 2 8 5 N 1018,1 21 4 0,0
22.04.2018 06:00:00 11,5 9,5 8,7 14,5 17,2 12,4 8 4 9 5 WNW 1017,8 20 0 0,0
22.04.2018 05:00:00 11,8 9,2 8,6 15,0 17,5 12,4 3 2 8 4 WNW 1017,7 26 0 0,0
22.04.2018 04:00:00 12,3 8,5 9,0 15,6 17,9 12,4 4 2 7 4 N 1017,6 33 0 0,0
22.04.2018 03:00:00 13,5 8,5 10,6 16,2 18,3 12,4 2 1 6 3 NW 1017,5 30 0 0,0
22.04.2018 02:00:00 13,8 8,5 10,3 16,8 18,7 12,3 4 2 11 6 WNW 1017,8 24 0 0,0
22.04.2018 01:00:00 14,9 8,9 12,7 17,5 19,0 12,3 9 5 12 7 NNO 1017,7 39 0 0,0
22.04.2018 00:00:00 16,1 8,3 12,4 18,3 19,4 12,3 5 3 15 8 O 1017,3 48 0 0,0
21.04.2018 23:00:00 17,1 8,2 14,0 19,2 19,8 12,3 8 4 11 6 NNO 1017,1 55 0 0,0
21.04.2018 22:00:00 17,6 8,1 15,2 20,3 20,2 12,3 9 5 10 6 O 1016,9 61 0 0,0
21.04.2018 21:00:00 19,4 6,3 16,9 21,7 20,4 12,3 7 4 9 5 O 1016,5 68 5 0,0
21.04.2018 20:00:00 23,8 3,9 20,9 23,5 20,5 12,3 4 2 7 4 ZO 1015,5 70 60 0,0
21.04.2018 19:00:00 25,1 5,4 25,3 25,3 20,4 12,3 5 3 10 5 ZO 1015,5 70 60 0,0
21.04.2018 18:00:00 25,9 6,9 27,5 26,5 20,0 12,2 6 4 10 5 O 1015,8 50 60 0,0
21.04.2018 17:00:00 24,7 8,7 28,0 27,2 19,5 12,2 7 4 11 6 O 1016,4 44 60 0,0
21.04.2018 16:00:00 25,1 8,9 29,1 27,2 18,9 12,2 8 4 11 6 O 1017,0 41 60 0,0
21.04.2018 15:00:00 23,4 7,8 28,3 26,5 18,1 12,2 9 5 14 7 O 1018,2 41 60 0,0
21.04.2018 14:00:00 22,7 9,8 28,4 25,8 17,4 12,2 10 5 14 8 O 1018,8 31 60 0,0
21.04.2018 13:00:00 22,0 8,7 27,5 24,3 16,6 12,2 10 5 13 7 O 1019,4 31 60 0,0
21.04.2018 12:00:00 19,9 8,7 24,5 22,0 16,0 12,1 7 4 11 6 O 1020,4 32 60 0,0
21.04.2018 11:00:00 18,6 9,3 23,2 19,4 15,6 12,1 6 3 10 5 O 1021,0 31 60 0,0
21.04.2018 10:00:00 17,4 9,4 20,2 16,4 15,5 12,1 3 2 7 4 ZO 1021,2 37 60 0,0
21.04.2018 09:00:00 14,7 8,7 14,3 13,7 15,6 12,1 3 2 8 5 W 1021,7 29 60 0,0
21.04.2018 08:00:00 12,7 8,0 13,2 13,4 15,9 12,1 0 0 4 2 N 1021,9 31 60 0,0
21.04.2018 07:00:00 9,9 8,0 7,4 13,3 16,2 12,1 2 1 8 4 WZW 1022,0 30 6 0,0
21.04.2018 06:00:00 9,9 8,0 7,7 13,8 16,5 12,0 5 3 10 5 NNO 1021,6 29 0 0,0
21.04.2018 05:00:00 10,9 8,1 8,3 14,3 16,9 12,0 6 4 11 6 W 1021,5 29 0 0,0
21.04.2018 04:00:00 12,3 9,2 10,5 14,8 17,2 12,0 9 5 11 6 NW 1021,2 34 0 0,0
21.04.2018 03:00:00 12,9 7,5 9,4 15,3 17,6 12,0 4 2 7 4 NNW 1021,2 50 0 0,0
21.04.2018 02:00:00 13,5 7,9 11,2 16,0 18,0 12,0 2 1 5 3 NNW 1021,2 45 0 0,0
21.04.2018 01:00:00 14,1 8,1 10,5 16,7 18,4 12,0 4 2 8 5 N 1021,4 45 0 0,0
21.04.2018 00:00:00 15,0 7,6 11,2 17,5 18,8 11,9 6 4 12 7 N 1021,3 43 0 0,0
20.04.2018 23:00:00 16,6 6,8 13,7 18,4 19,2 11,9 10 5 13 7 NNO 1021,1 70 0 0,0
20.04.2018 22:00:00 17,5 6,3 13,9 19,5 19,6 11,9 5 3 8 5 NO 1021,0 70 0 0,0
20.04.2018 21:00:00 18,7 6,9 15,7 20,9 19,8 11,9 4 2 8 4 OZO 1020,6 70 13 0,0
20.04.2018 20:00:00 21,4 6,8 19,0 22,8 19,9 11,9 5 3 8 5 OZO 1019,9 70 60 0,0
20.04.2018 19:00:00 24,2 5,2 24,2 24,7 19,8 11,9 4 2 10 6 O 1019,5 70 60 0,0
20.04.2018 18:00:00 24,8 6,3 26,7 26,1 19,4 11,9 6 4 11 6 O 1019,8 54 60 0,0
20.04.2018 17:00:00 24,3 5,3 27,7 26,7 18,9 11,9 9 5 11 6 O 1020,5 44 60 0,0
20.04.2018 16:00:00 24,8 8,4 28,5 26,5 18,2 11,8 6 4 9 5 O 1021,0 39 60 0,0
20.04.2018 15:00:00 23,8 9,3 28,9 25,9 17,5 11,8 7 4 12 6 O 1021,8 32 60 0,0
20.04.2018 14:00:00 22,0 9,2 27,0 25,0 16,8 11,8 7 4 13 7 OZO 1022,6 32 60 0,0
20.04.2018 13:00:00 20,3 8,9 25,1 23,4 16,0 11,8 9 5 14 7 O 1023,4 26 60 0,0
20.04.2018 12:00:00 18,1 7,1 23,0 21,3 15,4 11,8 8 4 13 7 O 1024,1 36 60 0,0
20.04.2018 11:00:00 17,0 6,9 21,9 18,6 15,0 11,8 7 4 10 6 O 1024,6 31 60 0,0
20.04.2018 10:00:00 15,6 7,7 18,9 15,8 14,9 11,7 6 3 9 5 O 1024,6 29 60 0,0
20.04.2018 09:00:00 14,9 7,4 14,8 13,3 15,1 11,7 3 1 6 3 Z 1024,6 35 60 0,0
20.04.2018 08:00:00 11,8 7,2 12,2 12,9 15,4 11,7 3 1 4 2 W 1025,1 29 51 0,0
20.04.2018 07:00:00 10,1 6,8 6,9 12,9 15,7 11,7 0 0 9 5 N 1025,2 31 0 0,0
20.04.2018 06:00:00 10,5 7,3 7,8 13,3 16,0 11,7 7 4 8 4 W 1024,9 31 0 0,0
20.04.2018 05:00:00 10,8 6,8 7,5 13,8 16,4 11,7 4 2 11 6 WNW 1025,0 39 0 0,0
20.04.2018 04:00:00 13,0 7,1 11,2 14,4 16,7 11,6 9 5 11 6 NW 1024,8 51 0 0,0
20.04.2018 03:00:00 12,7 6,7 9,9 14,9 17,1 11,6 8 4 10 5 WNW 1024,8 55 0 0,0
20.04.2018 02:00:00 14,2 6,7 9,7 15,6 17,5 11,6 3 2 6 4 O 1024,9 54 0 0,0
20.04.2018 01:00:00 14,4 6,7 10,6 16,3 17,9 11,6 4 2 10 6 NNO 1025,1 56 0 0,0
20.04.2018 00:00:00 16,0 6,5 12,2 17,1 18,3 11,6 7 4 11 6 NNO 1025,0 67 0 0,0
19.04.2018 23:00:00 16,5 6,5 11,9 18,0 18,7 11,6 4 2 9 5 NNO 1025,0 69 0 0,0
19.04.2018 22:00:00 18,6 6,7 13,9 19,1 19,0 11,6 6 3 13 7 NNO 1024,7 70 0 0,0
19.04.2018 21:00:00 19,8 5,9 16,3 20,5 19,3 11,6 9 5 13 7 NNO 1024,3 62 10 0,0
19.04.2018 20:00:00 23,3 6,2 19,3 22,4 19,3 11,5 2 1 7 4 O 1023,5 70 60 0,0
19.04.2018 19:00:00 25,2 4,7 25,0 24,3 19,2 11,5 5 3 12 6 Z 1023,3 70 60 0,0
19.04.2018 18:00:00 25,1 6,1 27,1 25,6 18,8 11,5 6 4 11 6 Z 1023,6 54 60 0,0
19.04.2018 17:00:00 24,4 5,6 27,7 26,2 18,2 11,5 5 3 11 6 O 1023,9 46 60 0,0
19.04.2018 16:00:00 24,8 6,2 29,6 26,1 17,5 11,5 6 3 14 7 ONO 1024,5 45 60 0,0
19.04.2018 15:00:00 23,2 6,4 28,2 25,5 16,8 11,5 6 3 13 7 O 1025,5 40 60 0,0
19.04.2018 14:00:00 21,8 5,7 28,1 24,5 16,0 11,5 7 4 13 7 O 1026,3 38 60 0,0
19.04.2018 13:00:00 21,1 7,3 25,8 22,8 15,2 11,5 7 4 14 8 O 1026,9 40 60 0,0
19.04.2018 12:00:00 19,7 6,3 23,7 20,5 14,6 11,4 5 3 10 5 O 1027,5 44 60 0,0
19.04.2018 11:00:00 16,7 4,6 21,8 17,9 14,2 11,4 7 4 11 6 Z 1028,2 40 60 0,0
19.04.2018 10:00:00 15,6 4,2 19,2 14,9 14,1 11,4 4 2 8 5 OZO 1028,6 32 60 0,0
19.04.2018 09:00:00 13,6 4,7 13,3 12,1 14,2 11,4 5 3 9 5 NNO 1028,8 24 60 0,0
19.04.2018 08:00:00 10,6 5,2 11,4 11,8 14,5 11,4 4 2 6 4 W 1029,1 23 60 0,0
19.04.2018 07:00:00 9,3 4,7 6,2 11,9 14,8 11,4 4 2 13 7 WNW 1028,9 34 10 0,0
19.04.2018 06:00:00 9,4 5,4 6,4 12,3 15,2 11,3 6 4 14 8 WNW 1028,5 33 0 0,0
19.04.2018 05:00:00 11,0 5,0 9,0 12,8 15,5 11,3 10 6 13 7 NW 1028,0 44 0 0,0
19.04.2018 04:00:00 10,9 5,7 8,3 13,4 15,9 11,3 6 4 9 5 WNW 1028,3 35 0 0,0
19.04.2018 03:00:00 12,5 4,8 8,1 14,0 16,2 11,3 5 3 9 5 N 1027,9 63 0 0,0
19.04.2018 02:00:00 13,2 5,1 8,8 14,7 16,6 11,3 4 2 14 8 NO 1028,0 59 0 0,0
19.04.2018 01:00:00 14,8 5,3 11,2 15,5 16,9 11,3 6 4 24 13 O 1027,8 61 0 0,0
19.04.2018 00:00:00 16,3 5,2 14,2 16,2 17,3 11,3 8 4 32 17 ONO 1027,7 57 0 0,0
18.04.2018 23:00:00 17,0 4,8 15,2 16,9 17,7 11,3 11 6 27 14 ONO 1027,5 58 0 0,0
18.04.2018 22:00:00 17,5 4,9 15,6 17,8 18,0 11,3 11 6 19 11 NO 1027,8 49 0 0,0
18.04.2018 21:00:00 18,6 5,0 16,1 19,1 18,3 11,2 8 4 19 11 NNO 1027,4 66 7 0,0
18.04.2018 20:00:00 20,4 4,1 18,7 20,8 18,4 11,2 8 4 29 16 NO 1026,8 70 60 0,0
18.04.2018 19:00:00 22,5 2,1 22,6 22,7 18,3 11,2 18 10 37 20 ONO 1026,4 70 60 0,0
18.04.2018 18:00:00 23,6 2,9 25,3 24,1 18,0 11,2 14 8 32 18 ONO 1026,3 63 60 0,0
18.04.2018 17:00:00 23,7 2,6 26,5 24,9 17,5 11,2 18 10 36 19 ONO 1026,4 52 60 0,0
18.04.2018 16:00:00 23,8 4,5 27,1 25,1 16,9 11,2 18 10 38 20 ONO 1026,6 40 60 0,0
18.04.2018 15:00:00 24,0 2,2 28,3 24,8 16,1 11,2 21 11 37 20 ONO 1026,9 54 60 0,0
18.04.2018 14:00:00 23,2 3,6 28,2 24,0 15,3 11,2 13 7 22 12 ONO 1027,1 58 60 0,0
18.04.2018 13:00:00 20,9 5,2 26,4 22,3 14,5 11,2 7 4 17 9 OZO 1027,9 44 60 0,0
18.04.2018 12:00:00 19,0 7,4 24,3 19,9 13,9 11,1 5 3 15 8 ZZO 1028,5 48 60 0,0
18.04.2018 11:00:00 16,5 6,1 20,8 17,2 13,4 11,1 6 4 14 7 Z 1029,4 41 60 0,0
18.04.2018 10:00:00 15,7 7,2 18,9 14,3 13,3 11,1 4 2 11 6 Z 1029,7 32 60 0,0
18.04.2018 09:00:00 13,8 7,4 13,6 11,5 13,4 11,1 2 1 5 3 Z 1030,0 26 60 0,0
18.04.2018 08:00:00 10,8 7,0 10,6 11,0 13,7 11,1 2 1 12 7 ONO 1030,5 24 60 0,0
18.04.2018 07:00:00 8,4 6,4 6,3 11,0 14,0 11,1 6 3 9 5 NNO 1030,4 18 5 0,0
18.04.2018 06:00:00 9,0 6,2 5,8 11,4 14,4 11,1 5 3 6 3 OZO 1030,1 25 0 0,0
18.04.2018 05:00:00 9,5 6,5 6,4 12,0 14,7 11,1 4 2 6 3 ONO 1030,0 32 0 0,0
18.04.2018 04:00:00 10,5 6,7 7,2 12,5 15,0 11,1 4 2 6 3 NO 1029,6 44 0 0,0
18.04.2018 03:00:00 10,6 6,5 7,3 13,1 15,4 11,1 3 1 10 5 WNW 1029,6 48 0 0,0
18.04.2018 02:00:00 11,3 6,6 8,3 13,8 15,8 11,1 5 3 11 6 N 1029,3 50 0 0,0
18.04.2018 01:00:00 13,0 5,9 9,5 14,5 16,2 11,0 8 4 10 5 N 1028,5 63 0 0,0
18.04.2018 00:00:00 13,6 5,7 9,7 15,1 16,5 11,0 6 4 11 6 N 1028,2 70 0 0,0
17.04.2018 23:00:00 14,3 5,5 10,7 16,0 16,9 11,0 7 4 13 7 NNO 1027,7 70 0 0,0
17.04.2018 22:00:00 15,3 5,5 11,6 17,1 17,3 11,0 6 3 12 7 NNO 1027,4 70 0 0,0
17.04.2018 21:00:00 16,9 4,8 13,5 18,5 17,5 11,0 8 4 19 10 NO 1026,2 70 3 0,0
17.04.2018 20:00:00 19,1 4,2 17,1 20,3 17,6 11,0 10 5 21 11 NO 1025,0 70 60 0,0
17.04.2018 19:00:00 21,3 4,8 21,4 22,3 17,5 11,0 8 4 22 12 NO 1023,8 70 60 0,0

tt = temperatuur
td = dauwpunt
tt 5cm = temperatuur 5cm
tt -5cm = temperatuur -5cm
tt -20cm = temperatuur -20cm
tt -100cm = temperatuur -100cm
ff = windsnelheid
fx = windstoten
dd = windrichting
ppp = luchtdruk
vv = zicht
sd = Zonneschijnduur
rr = neerslag

Weerstations in de omgeving